AAL9862 KAUS-EGPH

Flight info

Callsign AAL9862
Flight time N/A
Altitude 33000
Route ILEXY4 ZENZI DCT LFK DCT SQS DCT KT30O DCT VXV DCT ALEAN Q40 MAULS DCT CSN DCT RBV Q22 FOXWD DCT EBONY N505B ALLRY/M084F350 NATU KESIX/N0479F350 DCT AMLAD DCT BRUCE/N0459F250 L602 CLYDE DCT STIRA
Aircraft B77W/H-SDE1E2E3FGHIJ2J3J4J5M1RWXY/LB1D1

Departure

Time 2026-03-20 22:55
Airport Austin Bergstrom International Airport (KAUS)

Arrival

Time N/A
Airport Edinburgh Airport (EGPH)
Time Latitude Longitude Altitude Speed Heading
2026-03-20 22:31 30.20286 -97.66237 532 ft 0 kts 249°
2026-03-20 22:47 30.20291 -97.66222 532 ft 3 kts 249°
2026-03-20 22:47 30.20298 -97.66200 532 ft 3 kts 249°
2026-03-20 22:47 30.20305 -97.66179 532 ft 3 kts 249°
2026-03-20 22:47 30.20313 -97.66157 532 ft 3 kts 249°
2026-03-20 22:48 30.20318 -97.66141 532 ft 1 kts 249°
2026-03-20 22:48 30.20318 -97.66140 532 ft 0 kts 249°
2026-03-20 22:50 30.20318 -97.66142 532 ft 3 kts 247°
2026-03-20 22:50 30.20269 -97.66162 532 ft 9 kts 162°
2026-03-20 22:50 30.20211 -97.66142 532 ft 9 kts 166°
2026-03-20 22:51 30.20151 -97.66138 532 ft 9 kts 179°
2026-03-20 22:51 30.20113 -97.66149 532 ft 9 kts 216°
2026-03-20 22:51 30.20096 -97.66223 532 ft 12 kts 264°
2026-03-20 22:51 30.20065 -97.66369 532 ft 15 kts 217°
2026-03-20 22:52 30.19964 -97.66390 532 ft 15 kts 177°
2026-03-20 22:52 30.19914 -97.66299 532 ft 15 kts 89°
2026-03-20 22:52 30.19915 -97.66177 532 ft 15 kts 88°
2026-03-20 22:52 30.19917 -97.66095 532 ft 15 kts 89°
2026-03-20 22:53 30.19938 -97.65995 532 ft 10 kts 37°
2026-03-20 22:53 30.20004 -97.65991 532 ft 10 kts 358°
2026-03-20 22:53 30.20073 -97.65992 532 ft 10 kts 359°
2026-03-20 22:53 30.20180 -97.65992 532 ft 23 kts
2026-03-20 22:54 30.20321 -97.65993 532 ft 12 kts
2026-03-20 22:54 30.20367 -97.65926 532 ft 7 kts 82°
2026-03-20 22:54 30.20370 -97.65891 533 ft 5 kts 85°
2026-03-20 22:54 30.20361 -97.65809 534 ft 9 kts 129°
2026-03-20 22:55 30.20319 -97.65791 533 ft 0 kts 172°
2026-03-20 22:55 30.20206 -97.65784 531 ft 65 kts 179°
2026-03-20 22:55 30.19318 -97.65762 533 ft 187 kts 178°
2026-03-20 22:55 30.17738 -97.65744 1158 ft 243 kts 180°
2026-03-20 22:56 30.16117 -97.65726 1700 ft 227 kts 179°
2026-03-20 22:56 30.14533 -97.65672 1979 ft 232 kts 178°
2026-03-20 22:56 30.12911 -97.65558 2325 ft 237 kts 169°
2026-03-20 22:56 30.11408 -97.64760 2679 ft 244 kts 142°
2026-03-20 22:57 30.10433 -97.63125 3029 ft 257 kts 112°
2026-03-20 22:57 30.10257 -97.61034 3394 ft 271 kts 84°
2026-03-20 22:57 30.10898 -97.59019 3485 ft 271 kts 62°
2026-03-20 22:57 30.11985 -97.57198 3495 ft 279 kts 55°
2026-03-20 22:58 30.13179 -97.55425 3498 ft 280 kts 54°
2026-03-20 22:58 30.14377 -97.53667 3650 ft 274 kts 53°
2026-03-20 22:58 30.15539 -97.51950 4181 ft 271 kts 54°
2026-03-20 22:58 30.16729 -97.50164 4824 ft 284 kts 53°
2026-03-20 22:59 30.17935 -97.48336 5392 ft 288 kts 52°
2026-03-20 22:59 30.19145 -97.46487 6018 ft 290 kts 51°
2026-03-20 22:59 30.20359 -97.44624 6637 ft 289 kts 52°
2026-03-20 22:59 30.21567 -97.42759 7230 ft 291 kts 51°
2026-03-20 23:00 30.22771 -97.40895 7830 ft 287 kts 51°
2026-03-20 23:00 30.23960 -97.39052 8432 ft 285 kts 51°
2026-03-20 23:00 30.25145 -97.37216 9054 ft 284 kts 50°
2026-03-20 23:00 30.26320 -97.35387 9689 ft 282 kts 50°
2026-03-20 23:01 30.27488 -97.33568 10287 ft 282 kts 51°
2026-03-20 23:01 30.28658 -97.31747 10879 ft 282 kts 50°
2026-03-20 23:01 30.29838 -97.29913 11494 ft 286 kts 51°
2026-03-20 23:01 30.31048 -97.28032 12166 ft 305 kts 51°
2026-03-20 23:02 30.32387 -97.25952 12878 ft 340 kts 51°
2026-03-20 23:02 30.33867 -97.23649 13576 ft 369 kts 51°
2026-03-20 23:02 30.35244 -97.21098 14176 ft 383 kts 64°
2026-03-20 23:02 30.35884 -97.18077 14769 ft 392 kts 83°
2026-03-20 23:03 30.35766 -97.14912 15386 ft 398 kts 92°
2026-03-20 23:03 30.35504 -97.11683 16021 ft 406 kts 91°
2026-03-20 23:03 30.35296 -97.08397 16646 ft 412 kts 90°
2026-03-20 23:03 30.35105 -97.05072 17286 ft 415 kts 90°
2026-03-20 23:04 30.34913 -97.01729 17933 ft 418 kts 90°
2026-03-20 23:04 30.34720 -96.98401 18545 ft 421 kts 90°
2026-03-20 23:04 30.34521 -96.95011 19116 ft 423 kts 90°
2026-03-20 23:04 30.34319 -96.91607 19702 ft 425 kts 90°
2026-03-20 23:05 30.34113 -96.88137 20303 ft 428 kts 90°
2026-03-20 23:05 30.33907 -96.84690 20912 ft 430 kts 90°
2026-03-20 23:05 30.33699 -96.81222 21541 ft 434 kts 90°
2026-03-20 23:05 30.33489 -96.77773 22152 ft 437 kts 90°
2026-03-20 23:06 30.33270 -96.74245 22806 ft 442 kts 90°
2026-03-20 23:06 30.33048 -96.70682 23465 ft 446 kts 91°
2026-03-20 23:06 30.32823 -96.67082 24044 ft 450 kts 91°
2026-03-20 23:06 30.32596 -96.63455 24610 ft 454 kts 91°
2026-03-20 23:07 30.32366 -96.59803 25180 ft 457 kts 91°
2026-03-20 23:07 30.32134 -96.56118 25720 ft 460 kts 91°
2026-03-20 23:07 30.31900 -96.52429 26210 ft 460 kts 91°
2026-03-20 23:07 30.31665 -96.48753 26832 ft 457 kts 90°